Text 4598, 422 rader
Skriven 2011-07-15 11:01:21 av Amsat List (1:323/120.0)
Ärende: [keps]  orb11195.2l.amsa
================================
[keps]  orb11195.2l.amsa
Return-Path: <keps-bounces@amsat.org>
X-Rcpt: craig.healy@chowda.com
X-UIDL: 1310741595.41
SB KEPS @ AMSAT  $ORB11195.N
2Line Orbital Elements 11195.AMSAT
 
HR AMSAT ORBITAL ELEMENTS FOR AMATEUR SATELLITES IN NASA FORMAT
FROM WA5QGD FORT WORTH,TX July 14, 2011
Send SUBSCRIBE KEPS/UNSUBSCRIBE KEPS to majordomo@amsat.org only
BID: ORB11195.N
 
DECODE 2-LINE ELSETS WITH THE FOLLOWING KEY:
1 AAAAAU 00  0  0 BBBBB.BBBBBBBB  .CCCCCCCC  00000-0  00000-0 0  DDDZ
2 AAAAA EEE.EEEE FFF.FFFF GGGGGGG HHH.HHHH III.IIII JJ.JJJJJJJJKKKKKZ
KEY: A-CATALOGNUM B-EPOCHTIME C-DECAY D-ELSETNUM E-INCLINATION F-RAAN
G-ECCENTRICITY H-ARGPERIGEE I-MNANOM J-MNMOTION K-ORBITNUM Z-CHECKSUM
 
TO ALL RADIO AMATEURS BT
 
AO-07
1 07530U 74089B   11194.65166887 -.00000027  00000-0  10000-3 0 01284
2 07530 101.3918 200.1478 0011654 226.7747 133.2353 12.53583047677507
UO-11
1 14781U 84021B   11195.85867284  .00000136  00000-0  24967-4 0  6002
2 14781 098.0043 252.4804 0010184 052.9251 307.2880 14.79997653469883
FO-29
1 24278U 96046B   11194.97375090  .00000082  00000-0  11957-3 0 06526
2 24278 098.5491 335.4933 0350522 187.6770 171.8919 13.52964069736089
SO-33
1 25509U 98061B   11195.77104006  .00000292  00000-0  46691-4 0   104
2 25509 031.4310 088.3012 0353373 122.9899 240.5201 14.28430273664229
RS-22
1 27939U 03042A   11195.63751080  .00000165  00000-0  40389-4 0  4429
2 27939 097.8445 048.3210 0012229 258.4714 101.5125 14.63609478416356
VO-52
1 28650U 05017B   11194.62780344  .00000748  00000-0  99716-4 0 08460
2 28650 097.6410 236.5747 0028142 075.8268 284.6073 14.82112233334666
SO-67
1 35870U 09049F   11195.85373538  .00001249  00000-0  59541-4 0   281
2 35870 097.2796 238.2914 0000977 334.0017 128.0562 15.20867049101148
HO-68
1 36122U 09072B   11195.82953800 -.00000044  00000-0  00000 0 0  5561
2 36122 100.4134 256.2204 0007790 159.6925 200.4498 13.16287089 75879
AO-16
1 20439U 90005D   11195.83276446  .00000072  00000-0  42530-4 0  2326
2 20439 098.3862 144.5286 0011881 080.3677 279.8851 14.31928857121570
LO-19
1 20442U 90005G   11195.90791886  .00000070  00000-0  41527-4 0  1487
2 20442 098.3477 148.8457 0012892 074.9577 285.3026 14.32153782121769
AO-27
1 22825U 93061C   11194.89100422  .00000058  00000-0  39857-4 0  8640
2 22825 098.5320 138.7955 0008034 191.5774 168.5221 14.29354361928007
IO-26
1 22826U 93061D   11195.79541133  .00000031  00000-0  29038-4 0  6097
2 22826 098.5244 140.1479 0008563 182.6636 177.4502 14.29617275928250
GO-32
1 25397U 98043D   11194.69785935 -.00000044  00000-0 -16680-5 0 05293
2 25397 098.3272 185.8431 0001318 152.0386 208.0846 14.23212770675732
NO-44
1 26931U 01043C   11195.32445132 -.00000233  00000-0 -58649-4 0  7994
2 26931 067.0529 273.6010 0006319 255.7494 104.2903 14.29666410510808
SO-50
1 27607U 02058C   11194.63355193  .00000151  00000-0  45049-4 0 05155
2 27607 064.5587 247.3103 0075025 315.6881 043.8247 14.71770776459980
CO-55
1 27844U 03031E   11194.58498925  .00000050  00000-0  43210-4 0  1528
2 27844 098.7057 202.9017 0010482 118.6660 241.5568 14.20823733416664
CO-57
1 27848U 03031J   11195.51855519  .00000070  00000-0  52863-4 0  1034
2 27848 098.7115 203.0191 0010568 120.3363 239.8856 14.20602647416741
AO-51
1 28375U 04025K   11195.68175150  .00000053  00000-0  28789-4 0   207
2 28375 098.0999 172.6832 0084537 347.4572 012.4512 14.40767228370027
CP3
1 31129U 07012N   11194.74009558  .00000342  00000-0  88238-4 0  9161
2 31129 097.8978 217.4173 0104117 098.8181 262.4756 14.52514128224698
CO-65
1 32785U 08021C   11194.74712140  .00000634  00000-0  86233-4 0 00437
2 32785 097.8496 258.1317 0016229 089.4255 270.8838 14.82046613173473
PRISM
1 33493U 09002B   11195.84674067  .00000712  00000-0  97093-4 0  7701
2 33493 098.1276 324.8655 0018803 314.9956 044.9731 14.81778464133619
SOHLA-1
1 33496U 09002E   11195.76087827  .00000187  00000-0  39713-4 0  4637
2 33496 098.0830 305.3170 0007413 042.5970 317.5811 14.69633807132533
TISAT-1
1 36799U 10035E   11195.84508691  .00000533  00000-0  76485-4 0   436
2 36799 098.1004 264.3702 0015175 182.7833 177.3294 14.80614785 54403
STUDSAT
1 36801U 10035G   11194.76984334  .00001430  00000-0  19250-3 0 02549
2 36801 098.1054 263.1670 0013247 175.1657 184.9684 14.80756625054239
RAX
1 37223U 0        11152.36844328  .00000635  00000-0  96781-4 0 01738
2 37223 071.9713 073.6151 0021634 311.5989 048.3343 14.77415682028541
OOREOS
1 37224U 10062C   11153.29456974  .00000492  00000-0  77478-4 0 01796
2 37224 071.9726 071.8135 0020315 307.7637 052.1684 14.77036357028673
FO-69
1 37227U 0        11195.49515256  .00000138  00000-0  27771-4 0 00806
2 37227 071.9707 339.0515 0018365 233.1931 126.7547 14.76610143013352
NANOSALD
1 37361U 0        11189.36070308  .00126374  00000-0  86217-2 0 02720
2 37361 071.9617 345.3128 0044277 102.3907 258.2842 15.04742060025305
FO-70
1 37380U 0        11195.44538944  .00000141  00000-0  28324-4 0 02159
2 37380 071.9737 339.3022 0018880 230.7368 129.2119 14.76375910034884
NOAA-10
1 16969U 86073A   11194.98578696  .00000009  00000-0  21431-4 0 05720
2 16969 098.6194 224.4068 0012682 143.4923 216.7128 14.27468112291477
NOAA-11
1 19531U 88089A   11194.86007821  .00000216  00000-0  13432-3 0 05665
2 19531 098.7528 281.8196 0011899 110.6538 249.5909 14.14920676176526
NOAA-12
1 21263U 91032A   11194.96543970  .00000048  00000-0  38809-4 0 00803
2 21263 098.7500 212.7624 0013311 106.8418 253.4224 14.25724412048226
MET-3/5
1 21655U 91056A   11195.63453617  .00000051  00000-0  10000-3 0  1589
2 21655 082.5564 031.3787 0014825 088.2606 272.0174 13.17030236957336
MET-2/21
1 22782U 93055A   11194.65062006 -.00000009  00000-0 -21944-4 0 01485
2 22782 082.5495 301.8820 0023330 028.3123 331.9281 13.83660582902211
OKEAN-4
1 23317U 94066A   11195.75886774  .00000267  00000-0  29740-4 0  6101
2 23317 082.5399 347.3885 0023142 031.8507 328.4103 14.83104331904639
NOAA-14
1 23455U 94089A   11194.92814245 -.00000029  00000-0  77521-5 0 05658
2 23455 098.8526 277.2987 0008895 199.4858 160.5972 14.13824438852851
NOAA-15
1 25338U 98030A   11194.77805076  .00000265  00000-0  13220-3 0 08822
2 25338 098.6559 180.5572 0011242 020.3213 339.8412 14.24932235684513
RESURS
1 25394U 98043A   11194.94417428 -.00000025  00000-0  67102-5 0 08675
2 25394 098.3012 196.4938 0001669 115.0072 245.1280 14.24235118676110
FENGYUN1
1 25730U 99025A   11195.80156249  .00000940  00000-0  57009-3 0  3726
2 25730 098.8173 156.3886 0021927 236.3930 123.5156 14.08687020626956
OKEAN-0
1 25860U 99039A   11194.97949198  .00000134  00000-0  27901-4 0 03752
2 25860 097.8862 160.6897 0000598 040.3457 319.7795 14.73803274644605
NOAA-16
1 26536U 00055A   11194.77952184  .00000302  00000-0  18826-3 0 03640
2 26536 099.1392 225.8602 0010042 322.0129 038.0314 14.12631550557114
NOAA-17
1 27453U 02032A   11194.73102400 -.00000009  00000-0  14089-4 0 03520
2 27453 098.3786 233.2212 0012762 073.0214 287.2378 14.24290420470437
NOAA-18
1 28654U 05018A   11194.75336118 -.00000018  00000-0  14990-4 0 08322
2 28654 098.9962 145.9677 0015031 032.8772 327.3320 14.11491894316673
NOAA-19
1 33591U 09005A   11194.75641584  .00000162  00000-0  11402-3 0 00239
2 33591 098.8257 134.4648 0013169 261.5942 098.3760 14.11182718125130
HUBBLE
1 20580U 90037B   11193.24508359  .00000531  00000-0  27481-4 0  7976
2 20580 028.4704 212.7631 0003297 032.0114 328.0702 15.01418305963420
ISS
1 25544U 98067A   11195.89511520  .00008840  00000-0  11365-3 0  7131
2 25544 051.6408 021.2041 0010700 325.8959 175.0882 15.59897177725234
CO-58
1 28895U 05043F   11195.20251981  .00000178  00000-0  46114-4 0  9221
2 28895 097.9627 070.5437 0018316 133.0287 227.2442 14.60130187304183
FALCON
1 30776U 07006E   11194.38512890  .00000880  00000-0  64194-4 0 01387
2 30776 035.4330 187.6710 0002048 317.4144 042.6413 15.04735899238993
MAST
1 31126U 07012K   11195.77352023  .00000127  00000-0  38591-4 0  2082
2 31126 097.8929 221.4392 0095917 085.1116 276.1022 14.53769673225094
CAPE1
1 31130U 07012P   11194.95875377  .00000135  00000-0  41027-4 0 02232
2 31130 097.8980 217.3981 0103524 098.0847 263.2117 14.52418431224523
COMPASS
1 32787U 08021E   11194.60185505  .00000670  00000-0  89894-4 0 00372
2 32787 097.8469 257.9253 0016936 089.8792 270.4402 14.82488042173475
AAUSAT2
1 32788U 08021F   11194.69716726  .00000713  00000-0  94808-4 0 00297
2 32788 097.8463 258.2511 0016434 091.1353 269.1675 14.82679059173504
DO-64
1 32789U 08021G   11194.96786781  .00001463  00000-0  18536-3 0 00461
2 32789 097.8569 259.5736 0016523 087.7436 272.5672 14.83183543173556
CO-66
1 32791U 08021J   11194.69163251  .00000791  00000-0  10567-3 0 00318
2 32791 097.8471 257.9467 0017297 089.9113 270.4061 14.82171606173431
RS-30
1 32953U 08025A   11195.83563409  .00000010  00000-0  00000 0 0  9026
2 32953 082.5022 145.5365 0018760 331.6661 028.3404 12.43014133142527
TACSAT-3
1 35001U 09028A   11194.86987009  .00013514  00000-0  23884-3 0 06574
2 35001 040.4533 010.6093 0021829 044.9004 315.3574 15.49752377121228
PHARMSAT
1 35002U 09028B   11195.81220287  .00010740  00000-0  19424-3 0  5975
2 35002 040.4711 002.7997 0022717 060.2814 300.0261 15.49234167121393
HAWKSAT1
1 35003U 09028C   11195.80508768  .00070856  00000-0  58221-3 0  6858
2 35003 040.4515 329.1552 0018075 075.3623 284.9200 15.69213021121768
CP6
1 35004U 09028D   11195.74531212  .00135200  00000-0  72384-3 0  6909
2 35004 040.4512 318.5830 0016332 073.9584 286.3042 15.78892521121860
METEOR-M
1 35865U 09049A   11195.73685527  .00000176  00000-0  10000-3 0  5465
2 35865 098.7037 250.5064 0002437 334.1058 025.9955 14.21840368 94505
RS-38
1 35869U 09049E   11195.66316569  .00000177  00000-0  10000-3 0  5414
2 35869 098.7017 250.4686 0004358 323.4812 036.6030 14.22016320 94506
/EX
Confidentiality Notice: This email message, including any attachments, 
contains or may contain confidential information intended only for the 
addressee. If you are not an intended recipient of this message, be 
advised that any reading, dissemination, forwarding, printing, copying
or other use of this message or its attachments is strictly prohibited. If
you have received this message in error, please notify the sender 
immediately by reply message and delete this email message and any
attachments from your system. 
_______________________________________________
Via the Keps mailing list courtesy of AMSAT-NA
http://amsat.org/mailman/listinfo/keps
--- ViaMAIL!/WC v1.60d
 * Origin: Chowdanet (401-724-4410) telnet://chowdanet.com  (1:323/120)
  |